Voltar ao catálogo

SL-8 DEB

AtivoLEO
NORAD 15491·DEBRIS·🇷🇺 Russia

Lançado Jan 17, 1985 de Plesetsk Cosmodrome

Loading…

Próximas Passagens (próximas 24 horas)

TLE

AtualizadoSource: Space-Track

Época: Sep 14, 2026, 01:26 UTC

1 15491U 85006D   26257.06030329  .00000878  00000-0  22585-3 0  9992
2 15491  74.0419 187.6010 0016024 237.6914 122.2696 14.51598570184225

Acompanhe SL-8 DEB em tempo real com AllMySat

Download on the App Store